Location: Stockholm
(59.3330°N, 18.0500°E)
Time: 16:54:06
(UTC+01:00)

BEESAT 3 - Visible Passes

Search period start: 20 March 2023 00:00
Search period end: 30 March 2023 01:00
Orbit: 415 x 442 km, 64.9° (Epoch: 19 March)

Date Brightness Start Highest point End Pass type
(mag) Time Alt. Az. Time Alt. Az. Time Alt. Az.
21 Mar ? 04:40:25 10° SSE 04:42:53 19° ESE 04:45:23 10° ENE visible
22 Mar ? 03:58:12 10° SE 03:59:34 12° ESE 04:00:57 10° E visible
23 Mar ? 04:47:47 10° SSW 04:51:00 36° SE 04:54:13 10° ENE visible
24 Mar ? 04:04:27 10° S 04:07:17 24° SE 04:10:08 10° ENE visible
25 Mar ? 03:21:24 10° SSE 03:23:31 15° ESE 03:25:39 10° E visible
26 Mar ? 05:11:30 11° SSW 05:14:38 46° SE 05:17:59 10° ENE visible
27 Mar ? 04:28:32 17° S 04:30:30 30° SE 04:33:33 10° ENE visible
28 Mar ? 03:45:24 18° SE 03:46:17 19° SE 03:48:50 10° ENE visible
28 Mar ? 05:18:31 13° SW 05:21:35 88° SSE 05:25:03 10° NE visible
29 Mar ? 03:02:05 12° ESE 03:02:05 12° ESE 03:03:32 10° E visible
29 Mar ? 04:35:12 24° SSW 04:37:04 59° SE 04:40:28 10° ENE visible
